This is the latest recevied weather packets stored in our database for station/object PA0HHN. If no packets are shown the sender has not sent any weather packets the latest 10 day(s).
| Time | Temp. | Humidity | Pressure | Rain* | Wind** | Luminosity | Snow |
|---|---|---|---|---|---|---|---|
| 1777934700 | 11.11° C | 92% | 1007.6 hPa | - | - | - | - |
| 1777933801 | 11.11° C | 91% | 1007.5 hPa | - | - | - | - |
| 1777930200 | 12.22° C | 92% | 1008 hPa | - | - | - | - |
| 1777929302 | 12.22° C | 92% | 1007.7 hPa | - | - | - | - |
| 1777928401 | 12.22° C | 92% | 1007.7 hPa | - | - | - | - |
| 1777927503 | 12.22° C | 92% | 1007.9 hPa | - | - | - | - |
| 1777926601 | 12.22° C | 92% | 1008.1 hPa | - | - | - | - |
| 1777925702 | 12.22° C | 92% | 1007.9 hPa | - | - | - | - |
| 1777924802 | 12.22° C | 91% | 1007.7 hPa | - | - | - | - |
| 1777923900 | 12.78° C | 92% | 1007.8 hPa | - | - | - | - |
| 1777923001 | 12.78° C | 90% | 1007.6 hPa | - | - | - | - |
| 1777922101 | 13.89° C | 91% | 1007.3 hPa | - | - | - | - |
| 1777921202 | 13.89° C | 91% | 1007.4 hPa | - | - | - | - |
| 1777920302 | 13.89° C | 91% | 1007.2 hPa | - | - | - | - |
| 1777919402 | 13.89° C | 91% | 1007.3 hPa | - | - | - | - |
| 1777918501 | 15° C | 91% | 1007.2 hPa | - | - | - | - |
| 1777917602 | 15° C | 90% | 1006.9 hPa | - | - | - | - |
| 1777916700 | 15° C | 90% | 1006.8 hPa | - | - | - | - |
| 1777912200 | 17.22° C | 88% | 1006.8 hPa | - | - | - | - |
| 1777911302 | 16.11° C | 89% | 1007.3 hPa | - | - | - | - |
| 1777910401 | 16.11° C | 91% | 1007 hPa | - | - | - | - |
| 1777909500 | 16.11° C | 93% | 1007 hPa | - | - | - | - |
| 1777908601 | 16.11° C | 92% | 1006.8 hPa | - | - | - | - |
| 1777907702 | 16.11° C | 91% | 1007.1 hPa | - | - | - | - |
| 1777906802 | 16.11° C | 91% | 1007 hPa | - | - | - | - |
* Rain since midnight (hover to see other rain measurements)
** Current wind speed in m/s (hover to see current wind gust speed)